Location: Grantsboro
(35.1404°N, 76.8424°W)
Time: 20:41:26
(UTC+00:00)

BREEZE M DEB (TANK) - Pass Details

Date: 18 January 2020
Orbit: 322 x 13661 km, 49.5° (Epoch: 16 February)

Event Time Altitude Azimuth Distance (km) Brightness Sun altitude
Exits shadow 10:20:40 22° 41° (NE) 886 4.2 -23.0°
Drops below altitude 10° 10:22:07 10° 47° (NE) 1,613 5.7 -22.7°
Sets 10:25:02 0° 51° (NE) 3,113 7.2 -22.1°
